Regional Weather Roundup
Issued by NWS

Home | Current Version | Previous Version | Graphics & Text | Print | Product List | Glossary On
Versions: 1 2 3 4 5 6 7 8 9 10 11 12 13 14 15 16 17 18 19 20 21 22 23 24 25 26 27 28 29 30 31 32 33 34 35 36 37 38 39 40 41 42 43 44 45 46 47 48 49 50
140
ASUS45 KCYS 251510
RWRWY

WYOMING REGIONAL WEATHER ROUNDUP
NATIONAL WEATHER SERVICE CHEYENNE WY
900 AM MDT SAT MAR 25 2017

NOTE:  "FAIR" INDICATES FEW OR NO CLOUDS BELOW 12,000 FEET
WITH NO SIGNIFICANT WEATHER AND/OR OBSTRUCTIONS TO VISIBILITY.

WYZ001-251600-
YELLOWSTONE NATIONAL PARK

CITY           SKY/WX    TMP DP  RH WIND       PRES   REMARKS
LK YELLOWSTONE   N/A     31  29  92 CALM      30.04R
W YELLOWSTONE  NOT AVBL

$$
WYZ002>013-054>058-071-098>099-251600-
NORTHERN WYOMING

CITY           SKY/WX    TMP DP  RH WIND       PRES   REMARKS
JACKSON        LGT RAIN  34  34 100 SW6       30.04R WCI  29
CODY           FAIR      46  30  53 N17       29.98R
GREYBULL       CLOUDY    43  35  73 NW7       29.94R
WORLAND        CLOUDY    41  38  89 S6        29.94R
SHERIDAN       CLOUDY    46  37  71 W6        29.96R
BUFFALO        PTSUNNY   49  28  44 NW6       29.97R
GILLETTE       FAIR      48  35  60 CALM      29.93R
HULETT         FAIR      48  30  49 SW8       29.94S
NEWCASTLE      FAIR      46  28  49 SE7       29.96S

$$
WYZ014>020-022>026-101>103-251600-
CENTRAL WYOMING

CITY           SKY/WX    TMP DP  RH WIND       PRES   REMARKS
BIG PINEY      FLURRIES  33  31  92 W3        30.05R
PINEDALE       CLOUDY    34  32  93 N6        30.04F WCI  29
DUBOIS         CLOUDY    34  30  86 NW10      30.00S WCI  26
LANDER         FAIR      43  31  62 NE5       29.96S
RIVERTON       FAIR      45  31  58 NW9       29.97S
CASPER         FAIR      46  29  51 SW10      29.98R
DOUGLAS        FAIR      40  31  70 S6        29.98S

$$
WYZ021-027>030-104>119-251600-
SOUTHERN WYOMING

CITY           SKY/WX    TMP DP  RH WIND       PRES   REMARKS
EVANSTON       FAIR      38  26  62 CALM      30.02S
KEMMERER         N/A     32  28  86 NW3       30.02F
FORT BRIDGER   CLOUDY    36  33  92 NE5       30.05F WCI  32
ROCK SPRINGS   FAIR      36  30  79 N3        30.02S
DIXON            N/A     37  28  69 CALM      30.09S
RAWLINS        FAIR      44  23  43 VRB6      30.04S
SARATOGA       FAIR      41  25  52 SE16G23   30.06S
LARAMIE        FAIR      42  23  46 SW9       30.04S
CHEYENNE       FAIR      42  30  62 SW12      30.04R
TORRINGTON     FAIR      40  30  67 E7        29.99F
PINE BLUFFS    FAIR      37  32  81 SW9G17    30.05R WCI  31

$$




USA.gov is the U.S. government's official web portal to all federal, state and local government web resources and services.